Weather History for Newberry, MI

Change the Weather History Date:

Monday, December 23, 2013

  Actual Average Record
Temperature  
Mean Temperature 6 °F -  
Max Temperature 10 °F 26 °F 45 °F (1957)
Min Temperature 1 °F 13 °F -12 °F (1983)
Degree Days  
Heating Degree Days 60    
Moisture  
Dew Point 3 °F    
Average Humidity 87    
Maximum Humidity 94    
Minimum Humidity 78    
Precipitation  
Precipitation 0.00 in - - ()
Sea Level Pressure  
Sea Level Pressure 30.20 in    
Wind  
Wind Speed 3 mph (North)    
Max Wind Speed 7 mph    
Max Gust Speed -    
Visibility 6 miles    
Events Snow    
Averages and records for this station are not official NWS values.
T = Trace of Precipitation, MM = Missing Value Source: NWS Daily Summary

Daily Weather History Graph

Daily Weather History Graph

Search for Another Location

Airport:

Trip Planner

Search our weather history database for the weather conditions in past years. The results will help you decide how hot, cold, wet, or windy it might be!

Date:

Astronomy

Dec. 23, 2013 Rise Set
Actual Time 8:23 AM EST 4:59 PM EST
Civil Twilight 7:48 AM EST 5:34 PM EST
Nautical Twilight 7:09 AM EST 6:12 PM EST
Astronomical Twilight 6:33 AM EST 6:49 PM EST
Moon 11:28 PM EST (12/23) 11:29 AM EST (12/23)
Length of Visible Light 9h 46m
Length of Day
8h 36m
Waning Gibbous, 68% of the Moon is Illuminated
Dec 23
Waning Gibbous
Dec 25
Last Quarter
Jan 1
New
Jan 7
First Quarter
Jan 15
Full

Hourly Weather History & Observations

Time (EST) Temp. Windchill Dew Point Humidity Pressure Visibility Wind Dir Wind Speed Gust Speed Precip Events Conditions
12:15 AM 8.6 °F -2.6 °F 5.7 °F 88% 30.05 in 5.0 mi NNE 6.9 mph - N/A Snow Light Snow
12:35 AM 8.6 °F 2.0 °F 5.7 °F 88% 30.06 in 4.0 mi NNE 3.5 mph - N/A Snow Light Snow
12:56 AM 8.6 °F 0.1 °F 5.9 °F 89% 30.06 in 3.0 mi NNE 4.6 mph - N/A Snow Light Snow
1:15 AM 8.4 °F -0.1 °F 5.7 °F 89% 30.06 in 3.0 mi North 4.6 mph - N/A Snow Light Snow
1:35 AM 8.2 °F 1.6 °F 5.5 °F 89% 30.07 in 4.0 mi North 3.5 mph - N/A Snow Light Snow
1:55 AM 8.1 °F 1.4 °F 5.4 °F 89% 30.07 in 5.0 mi NNE 3.5 mph - N/A Snow Light Snow
2:15 AM 8.1 °F -0.5 °F 5.0 °F 87% 30.08 in 5.0 mi NNE 4.6 mph - N/A Snow Light Snow
2:35 AM 7.7 °F 1.0 °F 5.0 °F 89% 30.09 in 4.0 mi North 3.5 mph - N/A Snow Light Snow
2:55 AM 7.7 °F 1.0 °F 5.0 °F 89% 30.09 in 5.0 mi North 3.5 mph - N/A Snow Light Snow
3:15 AM 7.5 °F - 4.8 °F 89% 30.10 in 4.0 mi Calm Calm - N/A Snow Light Snow
3:36 AM 7.3 °F 0.5 °F 4.8 °F 89% 30.10 in 4.0 mi NNW 3.5 mph - N/A Snow Light Snow
3:55 AM 6.6 °F -0.3 °F 4.3 °F 90% 30.11 in 3.0 mi North 3.5 mph - N/A Snow Light Snow
4:15 AM 6.4 °F - 4.1 °F 90% 30.11 in 5.0 mi Calm Calm - N/A Snow Light Snow
4:36 AM 5.9 °F -1.1 °F 4.1 °F 92% 30.11 in 5.0 mi North 3.5 mph - N/A Snow Light Snow
4:55 AM 5.5 °F -1.5 °F 3.6 °F 92% 30.11 in 4.0 mi NNE 3.5 mph - N/A Snow Light Snow
5:15 AM 4.8 °F -2.3 °F 2.7 °F 91% 30.12 in 7.0 mi NE 3.5 mph - N/A   Scattered Clouds
5:35 AM 4.6 °F - 2.3 °F 90% 30.12 in 10.0 mi Calm Calm - N/A   Scattered Clouds
5:55 AM 3.9 °F -3.4 °F 1.4 °F 89% 30.12 in 10.0 mi ENE 3.5 mph - N/A   Mostly Cloudy
6:15 AM 3.4 °F - 1.0 °F 90% 30.13 in 10.0 mi Calm Calm - N/A   Overcast
6:35 AM 2.7 °F - 0.5 °F 91% 30.14 in 10.0 mi Calm Calm - N/A   Mostly Cloudy
6:56 AM 2.7 °F - 0.5 °F 91% 30.14 in 10.0 mi Calm Calm - N/A   Scattered Clouds
7:15 AM 3.0 °F - 0.9 °F 91% 30.14 in 10.0 mi Calm Calm - N/A   Mostly Cloudy
7:35 AM 3.0 °F - 0.7 °F 90% 30.15 in 5.0 mi Calm Calm - N/A Snow Light Snow
7:56 AM 2.5 °F - -0.2 °F 88% 30.15 in 4.0 mi Calm Calm - N/A Snow Light Snow
8:15 AM 2.8 °F - 0.5 °F 90% 30.16 in 5.0 mi Calm Calm - N/A Snow Light Snow
8:35 AM 4.1 °F -3.2 °F 1.8 °F 90% 30.16 in 7.0 mi NNW 3.5 mph - N/A   Overcast
8:55 AM 4.1 °F -3.2 °F 1.6 °F 89% 30.18 in 7.0 mi NNW 3.5 mph - N/A Snow Light Snow
9:15 AM 4.1 °F -3.2 °F 1.6 °F 89% 30.18 in 7.0 mi North 3.5 mph - N/A Snow Light Snow
9:36 AM 4.6 °F -2.5 °F 2.1 °F 89% 30.19 in 5.0 mi NNW 3.5 mph - N/A Snow Light Snow
9:55 AM 5.0 °F -2.1 °F 2.3 °F 89% 30.20 in 3.0 mi North 3.5 mph - N/A Snow Light Snow
10:15 AM 5.5 °F -3.4 °F 2.3 °F 86% 30.21 in 3.0 mi North 4.6 mph - N/A Snow Light Snow
10:36 AM 5.9 °F -3.0 °F 2.3 °F 85% 30.21 in 5.0 mi NNE 4.6 mph - N/A Snow Light Snow
10:55 AM 6.4 °F -2.4 °F 2.1 °F 82% 30.21 in 3.0 mi NNE 4.6 mph - N/A Snow Light Snow
11:15 AM 6.8 °F -3.5 °F 2.1 °F 81% 30.21 in 5.0 mi North 5.8 mph - N/A Snow Light Snow
11:36 AM 7.7 °F -2.4 °F 2.7 °F 80% 30.21 in 4.0 mi North 5.8 mph - N/A Snow Light Snow
11:55 AM 8.1 °F -0.5 °F 3.0 °F 80% 30.21 in 4.0 mi North 4.6 mph - N/A Snow Light Snow
12:15 PM 8.6 °F -1.3 °F 3.2 °F 79% 30.21 in 5.0 mi NNE 5.8 mph - N/A   Haze
12:35 PM 9.0 °F -0.9 °F 3.7 °F 79% 30.21 in 5.0 mi NNW 5.8 mph - N/A Snow Light Snow
12:55 PM 9.3 °F -0.5 °F 3.9 °F 79% 30.21 in 7.0 mi NNE 5.8 mph - N/A   Overcast
1:15 PM 9.7 °F -1.3 °F 4.3 °F 79% 30.21 in 7.0 mi North 6.9 mph - N/A Snow Light Snow
1:35 PM 10.2 °F 2.0 °F 4.5 °F 78% 30.21 in 5.0 mi North 4.6 mph - N/A Snow Light Snow
1:55 PM 10.2 °F 2.0 °F 4.8 °F 79% 30.21 in 5.0 mi NNW 4.6 mph - N/A   Haze
2:15 PM 10.0 °F -0.9 °F 4.3 °F 78% 30.21 in 4.0 mi North 6.9 mph - N/A Snow Light Snow
2:35 PM 10.0 °F -0.9 °F 4.6 °F 79% 30.22 in 5.0 mi North 6.9 mph - N/A Snow Light Snow
2:55 PM 10.0 °F 0.4 °F 4.6 °F 79% 30.23 in 5.0 mi North 5.8 mph - N/A   Haze
3:15 PM 9.5 °F -0.3 °F 4.5 °F 80% 30.23 in 5.0 mi North 5.8 mph - N/A Snow Light Snow
3:36 PM 9.5 °F -0.3 °F 4.8 °F 81% 30.23 in 7.0 mi North 5.8 mph - N/A   Overcast
3:55 PM 9.5 °F - 5.0 °F 82% 30.24 in 4.0 mi Calm Calm - N/A Snow Light Snow
4:15 PM 9.5 °F 3.0 °F 5.5 °F 84% 30.25 in 4.0 mi North 3.5 mph - N/A Snow Light Snow
4:36 PM 9.9 °F 3.4 °F 5.9 °F 84% 30.26 in 5.0 mi North 3.5 mph - N/A Snow Light Snow
4:55 PM 9.5 °F 1.2 °F 5.5 °F 84% 30.26 in 7.0 mi North 4.6 mph - N/A   Overcast
5:15 PM 9.5 °F 3.0 °F 5.9 °F 85% 30.27 in 4.0 mi North 3.5 mph - N/A Snow Light Snow
5:36 PM 9.0 °F 2.4 °F 5.7 °F 87% 30.27 in 4.0 mi NE 3.5 mph - N/A Snow Light Snow
5:55 PM 8.6 °F - 5.9 °F 89% 30.27 in 5.0 mi Calm Calm - N/A Snow Light Snow
6:15 PM 8.1 °F 1.4 °F 5.0 °F 87% 30.27 in 7.0 mi NNE 3.5 mph - N/A Snow Light Snow
6:35 PM 7.5 °F 0.8 °F 5.0 °F 89% 30.28 in 7.0 mi NNE 3.5 mph - N/A Snow Light Snow
6:55 PM 7.2 °F - 4.8 °F 90% 30.28 in 7.0 mi Calm Calm - N/A Snow Light Snow
7:16 PM 6.6 °F -0.3 °F 4.3 °F 90% 30.29 in 7.0 mi NE 3.5 mph - N/A Snow Light Snow
7:35 PM 4.6 °F - 2.3 °F 90% 30.30 in 7.0 mi Calm Calm - N/A Snow Light Snow
7:55 PM 6.3 °F - 4.1 °F 91% 30.30 in 10.0 mi Calm Calm - N/A   Overcast
8:16 PM 6.3 °F - 3.9 °F 90% 30.31 in 7.0 mi Calm Calm - N/A   Overcast
8:35 PM 5.9 °F - 3.9 °F 92% 30.31 in 10.0 mi Calm Calm - N/A   Overcast
8:55 PM 1.8 °F - -0.4 °F 91% 30.31 in 10.0 mi Calm Calm - N/A   Overcast
9:15 PM 4.8 °F - 3.2 °F 93% 30.31 in 10.0 mi Calm Calm - N/A   Overcast
9:35 PM 1.2 °F - -0.8 °F 91% 30.31 in 10.0 mi Calm Calm - N/A   Mostly Cloudy
9:56 PM 3.6 °F - 2.1 °F 94% 30.31 in 7.0 mi Calm Calm - N/A Snow Light Snow
10:15 PM 2.1 °F - -0.0 °F 91% 30.31 in 10.0 mi Calm Calm - N/A Snow Light Snow
10:35 PM 2.5 °F -7.0 °F 0.3 °F 91% 30.31 in 10.0 mi NE 4.6 mph - N/A   Mostly Cloudy
10:56 PM 3.2 °F -4.2 °F 1.0 °F 91% 30.31 in 10.0 mi NNE 3.5 mph - N/A   Mostly Cloudy
11:15 PM 3.2 °F -4.2 °F 1.2 °F 91% 30.31 in 10.0 mi NE 3.5 mph - N/A   Overcast
11:35 PM 2.8 °F - 0.7 °F 91% 30.32 in 10.0 mi Calm Calm - N/A   Overcast
11:55 PM 2.1 °F - 0.1 °F 91% 30.32 in 7.0 mi Calm Calm - N/A Snow Light Snow